OpenBCM V1.08-5-g2f4a (Linux)

Packet Radio Mailbox

IZ3LSV

[San Dona' di P. JN]

 Login: GUEST





  
I0OJJ  > KEPS     14.09.25 01:40l 313 Lines 14851 Bytes #35 (0) @ AMSAT
BID : ORB25257.1
Read: GUEST
Subj: 2Line Orbital Elements 25257.AMSAT
Path: IZ3LSV<IK6IHL<IK7NXU<HB9ON<HB9ON<PI8ZTM<PI8LAP<K5DAT<VK3AT<VK2IO<
      VK2RZ<IR0AAB<I0OJJ
Sent: 250914/0025z @:I0OJJ.ITA.EU [Rome] obcm1.08-10-g596e
From: I0OJJ @ I0OJJ.ITA.EU (Gustavo)
To:   KEPS @ AMSAT
X-Info: This message was generated automatically


QST de W1STR

AMSAT Orbital Elements for Amateur Satellites in TLE Format
From Orbital Analysis Office
New England Sci-Tech STEM Education Center
Natick MA September 14, 2025
To all radio amateurs


These element sets describe the orbits of various satellites 
in use by the amateur radio community. For details see:
www.amsat.org/keplerian-elements-formats/

A daily update of element sets is available at:
www.amsat.org/tle/daily-bulletin.txt
or without bulletin text:
www.amsat.org/tle/dailytle.txt


AO-07
1 07530U 74089B   25255.93661181 -.00000051  00000-0 -27296-4 0  9995
2 07530 101.9982 261.2283 0011953 301.4526 172.6487 12.53691465325772
UO-11
1 14781U 84021B   25256.19489204  .00001322  00000-0  14393-3 0  9994
2 14781  97.7653 220.7364 0008551  31.2071 328.9652 14.89661268215876
AO-27
1 22825U 93061C   25255.88217175  .00000061  00000-0  40483-4 0  9996
2 22825  98.7278 317.8733 0008271 186.2819 173.8261 14.30827872667343
FO-29
1 24278U 96046B   25256.12995541 -.00000027  00000-0  55815-5 0  9993
2 24278  98.5592 137.3872 0350902  94.9874 269.1413 13.53253550435699
NOAA-15
1 25338U 98030A   25256.31090650  .00000093  00000-0  55881-4 0  9998
2 25338  98.5321 279.1236 0011443  80.3637 279.8836 14.27015478421808
GO-32
1 25397U 98043D   25256.22927649  .00000057  00000-0  44634-4 0  9998
2 25397  98.9812 237.3902 0000589 350.0706  10.0461 14.24338026411904
ISS
1 25544U 98067A   25256.06257952  .00007066  00000-0  13046-3 0  9992
2 25544  51.6331 231.5214 0004290 333.0266  27.0500 15.50263553528797
NO-44
1 26931U 01043C   25256.20773047  .00000113  00000-0  73515-4 0  9999
2 26931  67.0489 240.5822 0007046 275.3038  84.7260 14.31777015250791
SO-50
1 27607U 02058C   25255.78348264  .00001185  00000-0  16264-3 0  9995
2 27607  64.5509 266.6038 0066098 313.9922  45.5745 14.81875792223337
CO-55
1 27844U 03031E   25255.74573957  .00000245  00000-0  12553-3 0  9998
2 27844  98.6789 262.8051 0008415 272.0060  88.0155 14.24065510152185
CO-57
1 27848U 03031J   25255.73889612  .00000203  00000-0  10860-3 0  9992
2 27848  98.6819 262.7316 0008414 292.0429  67.9856 14.23390414151902
RS-22
1 27939U 03042A   25256.29382123  .00000927  00000-0  15393-3 0  9991
2 27939  98.3368  68.1204 0012498  68.9650  53.2463 14.72579169174789
CO-58
1 28895U 05043F   25255.87455727  .00001258  00000-0  21160-3 0  9997
2 28895  98.2633  41.5038 0014503   9.6838 350.4645 14.71331286 60956
CO-65
1 32785U 08021C   25256.22269740  .00004061  00000-0  28760-3 0  9995
2 32785  97.7950 228.2012 0007864 243.7000 116.3418 15.05378980943468
CO-66
1 32791U 08021J   25255.91239386  .00010529  00000-0  47743-3 0  9998
2 32791  97.7370 238.2675 0003984 157.0882 203.0531 15.21023161944974
RS-30
1 32953U 08025A   25256.25243546  .00000021  00000-0  83126-4 0  9995
2 32953  82.5072 167.6948 0018454 193.9890 166.0681 12.43168077785287
NOAA-19
1 33591U 09005A   25256.19657576  .00000079  00000-0  65980-4 0  9999
2 33591  98.9889 321.4015 0014835  93.9820 266.3048 14.13406413855354
SRMSAT
1 37841U 11058D   25256.24991829  .00000397  00000-0  71979-4 0  9998
2 37841  19.9722 295.6002 0011911  37.9956  30.3198 14.11463495718649
ZACUBE-1
1 39417U 13066B   25255.83351209  .00004847  00000-0  41222-3 0  9997
2 39417  97.7893 212.4331 0045924  93.6602 266.9873 14.97485075639161
Delfi-N3xt
1 39428U 13066N   25255.72461867  .00007313  00000-0  72270-3 0  9997
2 39428  97.8285 172.3510 0084655  47.9456 312.8924 14.89530717633230
GOMX-1
1 39430U 13066Q   25256.26494829  .00001405  00000-0  22386-3 0  9993
2 39430  97.6725 109.0321 0130307 245.9083 112.8446 14.67989429629268
LO-74
1 39440U 13066AA  25256.29035206  .00002151  00000-0  21821-3 0  9999
2 39440  97.8551 200.2556 0059812 222.9055 136.7489 14.90656556635691
AO-73
1 39444U 13066AE  25256.15587391  .00006222  00000-0  45047-3 0  9994
2 39444  97.7930 218.5526 0043597  65.6629 294.9139 15.03587606637949
DTUSAT-2
1 40030U 14033W   25256.18743556  .00004888  00000-0  30884-3 0  9991
2 40030  98.0658 232.7582 0011261  96.3947 263.8563 15.09513200610818
EO-80
1 40032U 14033Y   25256.20272830  .00005809  00000-0  36536-3 0  9992
2 40032  98.0542 232.2956 0009895  48.6739 311.5339 15.09604434610790
LILACSAT-2
1 40908U 15049K   25256.32626502  .00009346  00000-0  22768-3 0  9996
2 40908  97.5031 279.1085 0009467 163.8414 196.3136 15.41100631552961
IO-86
1 40931U 15052B   25151.18580175  .00001241  00000-0  78118-4 0  9996
2 40931   6.0006  24.0987 0012733 338.8432  21.1169 14.78805930523159
Horyu-4
1 41340U 16012D   25256.21421391  .00023107  00000-0  53299-3 0  9999
2 41340  30.9951 206.9153 0006231 325.8207  34.2038 15.41298970527534
Lapan A3
1 41603U 16040E   25256.30470622  .00002863  00000-0  99452-4 0  9991
2 41603  97.1420 257.2134 0008868 291.2992  68.7302 15.30506096512422
CAS-2T
1 41847U 16066G   25256.26158143  .00000848  00000-0  13056-3 0  9991
2 41847  98.4130 329.8733 0344172 248.9018 107.5060 14.43709390464822
CAS-4B
1 42759U 17034B   25256.29795801  .00180239  00000-0  80681-3 0  9992
2 42759  42.9999 105.0804 0023797 253.1349 106.6913 15.82470091457654
CAS-4A
1 42761U 17034D   25255.77181001  .00195926  21387-4  76455-3 0  9996
2 42761  43.0036 103.8361 0024611 255.9791 103.8346 15.85884778457600
TechnoSat
1 42829U 17042E   25256.24440011  .00002331  00000-0  18019-3 0  9996
2 42829  97.4020  60.4562 0016353 325.2289  34.7867 15.02336714445089
AO-91
1 43017U 17073E   25255.44154569  .00006097  00000-0  30532-3 0  9998
2 43017  97.5102 123.8368 0167538 202.5377 156.8433 15.06253265423484
S-Net D
1 43186U 18014G   25256.17969750  .00003545  00000-0  20595-3 0  9991
2 43186  97.5503 158.1079 0006922 252.6927 107.3546 15.12736715416821
S-Net B
1 43187U 18014H   25256.18636424  .00003735  00000-0  21687-3 0  9996
2 43187  97.5509 158.0909 0007665 247.0035 113.0388 15.12715995416827
S-Net A
1 43188U 18014J   25256.17974269  .00003472  00000-0  20177-3 0  9999
2 43188  97.5516 158.2473 0007547 247.8875 112.1555 15.12741864416823
S-Net C
1 43189U 18014K   25256.18899742  .00003812  00000-0  22123-3 0  9994
2 43189  97.5533 158.2870 0009131 239.6363 120.3966 15.12712143415370
Ten-Koh
1 43677U 18084G   25256.27258505  .00001586  00000-0  12935-3 0  9995
2 43677  98.0816  72.3232 0005826 305.1267  54.9409 15.01005362374597
PO-101
1 43678U 18084H   25256.27524405  .00001057  00000-0  93138-4 0  9999
2 43678  98.1092  76.1124 0008416 338.4297  21.6568 14.98751033374716
QO-100
1 43700U 18090A   25256.16312741  .00000136  00000-0  00000-0 0  9997
2 43700   0.0164 135.0716 0001519  77.3196 224.5511  1.00272589 24896
MinXSS-2
1 43758U 18099A   25255.93545316  .00013969  00000-0  50185-3 0  9999
2 43758  97.4923 322.4194 0011703 174.0087 186.1295 15.28705119371526
AO-95
1 43770U 18099N   25256.09883333  .00007049  00000-0  34064-3 0  9995
2 43770  97.4817 313.1827 0009243 233.3092 126.7293 15.18904062371045
SNUSat 2
1 43782U 18099AA  25255.90087685  .00005852  00000-0  30805-3 0  9992
2 43782  97.4500 308.9417 0012057 176.3119 183.8205 15.15942827370939
SnugLite
1 43784U 18099AC  25256.10787914  .00007179  00000-0  34361-3 0  9994
2 43784  97.4314 308.9180 0004020 160.9001 199.2385 15.19257781371136
ITASat 1
1 43786U 18099AE  25256.08317286  .00004632  00000-0  25762-3 0  9990
2 43786  97.4470 308.3385 0012832 231.1921 128.8166 15.14087083370904
EAGLET 1
1 43790U 18099AJ  25256.21148550  .00003128  00000-0  19713-3 0  9994
2 43790  97.4668 308.0832 0011003 214.2923 145.7597 15.09821816370499
ESEO
1 43792U 18099AL  25255.88581930  .00001473  00000-0  11385-3 0  9999
2 43792  97.4365 299.7293 0011897 194.6797 165.4085 15.02932287370133
JO-97
1 43803U 18099AX  25256.12541394  .00009227  00000-0  39541-3 0  9999
2 43803  97.4562 314.4301 0007982 161.1461 199.0072 15.22957494371305
Suomi 100
1 43804U 18099AY  25256.10595635  .00007754  00000-0  36092-3 0  9996
2 43804  97.4626 313.4130 0012490 168.7082 191.4436 15.20138567371207
ISAT
1 43879U 18111D   25256.20910284  .00017893  00000-0  54969-3 0  9993
2 43879  97.5870 172.9129 0006774 197.0138 163.0878 15.33752944368332
UWE-4
1 43880U 18111E   25256.00755226  .00012705  00000-0  45621-3 0  9998
2 43880  97.5814 170.4590 0009157 224.3729 135.6777 15.28774598368195
Sparrow
1 43881U 18111F   25256.04205295  .00018980  00000-0  55595-3 0  9991
2 43881  97.6035 176.0169 0003435 241.4052 118.6846 15.35264892368410
Prox-1
1 44339U 19036A   25256.03666305  .00008789  00000-0  10523-2 0  9996
2 44339  23.9954 153.9221 0006802  79.4503 280.6760 14.81892271332183
Taurus 1
1 44530U 19059C   25256.32663602  .00004789  00000-0  86330-3 0  9999
2 44530  98.6174  40.3901 0009708 100.4016 259.8282 14.66996051317976
Duchifat 3
1 44854U 19089C   25255.91520576  .00062853  00000-0  85276-3 0  9991
2 44854  36.9378 105.2070 0007576 339.6908  20.3549 15.56529527317822
TO-108
1 44881U 19093C   25256.26471604  .00000710  00000-0  87705-4 0  9996
2 44881  97.7855 329.8910 0012305 278.1790  81.8030 14.85785174310289
FloripaSat 1
1 44885U 19093G   25256.20949228  .00004282  00000-0  35368-3 0  9991
2 44885  97.8167 344.0542 0008041 244.1652 115.8742 14.99485815311072
RS-44
1 44909U 19096E   25255.77858068  .00000025  00000-0  48776-4 0  9992
2 44909  82.5254 164.0457 0218515  73.0245 289.4678 12.79743332266867
UPMSat 2
1 46276U 20061E   25255.77300614  .00198719  16192-4  69520-3 0  9994
2 46276  97.2311 334.4098 0003377 224.1787 135.9217 15.89271376280469
